Location: Endfield
(51.6667°N, 0.0667°W)
Time: 03:27:32
(UTC+00:00)

ALOS 2 - Pass Details

Date: 19 May 2024
Orbit: 630 x 632 km, 97.9° (Epoch: 17 June)

Event Time Altitude Azimuth Distance (km) Brightness Sun altitude
Exits shadow 23:33:35 37° 189° (S) 983 3.1 -18.1°
Maximum altitude 23:35:11 65° 258° (WSW) 699 2.7 -18.1°
Drops below altitude 10° 23:39:35 10° 341° (NNW) 2,029 6.4 -18.2°
Sets 23:41:49 0° 344° (NNW) 2,941 7.6 -18.2°
